Regional Weather Roundup
Issued by NWS Nashville, TN

Current Version | Previous Version | Text Only | Print | Product List | Glossary Off
Versions: 1 2 3 4 5 6 7 8 9 10 11 12 13 14 15 16 17 18 19 20 21 22 23 24 25 26 27 28

000
ASUS44 KOHX 221510
RWROHX
MIDDLE TENNESSEE HOURLY WEATHER ROUNDUP
NATIONAL WEATHER SERVICE NASHVILLE TN
900 AM CST THU FEB 22 2018

NOTE: "FAIR" INDICATES FEW OR NO CLOUDS BELOW 12,000 FEET WITH
NO SIGNIFICANT WEATHER AND/OR OBSTRUCTIONS TO VISIBILITY.

* THESE REPORTS ARE NOT UNDER NWS QUALITY CONTROL AND MAY NOT
  REPORT WEATHER SUCH AS PRECIPITATION AND FOG.


TNZ005>011-023>034-057-059-062>066-078-080-221600
...NORTHERN MIDDLE TENNESSEE...

CITY           SKY/WX    TMP DP  RH WIND       PRES   REMARKS
CLARKSVILLE    CLOUDY    49  46  90 NE3       30.35S FOG
CROSSVILLE     CLOUDY    64  57  78 S9        30.40R
GALLATIN       CLOUDY    57  57 100 NW6       30.37R
NASHVILLE      CLOUDY    58  55  90 NW8       30.34R
PORTLAND       CLOUDY    54  52  94 N3        30.35R
SMYRNA         LGT RAIN  63  61  93 S3        30.34R
SPARTA         SUNNY     64  61  88 S8        30.35R
SPRINGFIELD    FOG       52  52 100 CALM      30.34R VSB 1/2
WEST NASHVILLE CLOUDY    54  54 100 CALM      30.33R
$$
TNZ056-058-060-061-075>077-079-093>097-221600
...SOUTHERN MIDDLE TENNESSEE...

CITY           SKY/WX    TMP DP  RH WIND       PRES   REMARKS
COLUMBIA       PTSUNNY   63  63 100 CALM      30.31R
FAYETTEVILLE   CLOUDY    63  63 100 SW7       30.37S FOG
MCMINNVILLE    PTSUNNY   64  61  88 SW9       30.34F
PULASKI        CLOUDY    64  63  94 SE8       30.34R FOG
SHELBYVILLE    MOSUNNY   63  63 100 S13G18    30.33S FOG
TULLAHOMA      FOG       63  61  94 S8G15     30.37R VSB 1/2
WINCHESTER     CLOUDY    66  63  88 S8        30.38S
$$


...KEY TO REMARKS...
VSB - VISIBILITY IN MILES
WCI - WIND CHILL INDEX
HX  - HEAT INDEX





USA.gov is the U.S. government's official web portal to all federal, state and local government web resources and services.